KW1M Weather Reports


time (UTC)temp
C
wind
direction
speed
KPH
gust
KPH
rain 1hr
cm
rain 24hr
cm
rain mn
cm
humidity
%
barometer
mb
20260831101535 12 54 0.0 0.0 0.00 0.00 0.00 91 1020.2
20260831100040 12 53 0.0 0.0 0.00 0.00 0.00 90 1020.0
20260831094528 12 53 0.0 0.0 0.00 0.00 0.00 89 1019.9
20260831093027 13 53 0.0 0.0 0.00 0.00 0.00 89 1019.8
20260831091525 12 54 0.0 0.0 0.00 0.00 0.00 89 1019.6
20260831090023 13 54 0.0 0.0 0.00 0.00 0.00 89 1019.5
20260831084520 13 54 0.0 0.0 0.00 0.00 0.00 89 1019.3
20260831083019 13 54 0.0 0.0 0.00 0.00 0.00 90 1019.3
20260831081519 13 54 0.0 0.0 0.00 0.00 0.00 90 1019.2
20260831080016 13 54 0.0 0.0 0.00 0.00 0.00 90 1019.2
20260831074515 13 54 0.0 0.0 0.00 0.00 0.00 90 1019.0
20260831073016 13 54 0.0 0.0 0.00 0.00 0.00 92 1018.8
20260831071516 13 54 0.0 0.0 0.00 0.00 0.00 92 1018.7
20260831070009 13 54 0.0 0.0 0.00 0.00 0.00 93 1018.6
20260831064505 14 53 0.0 0.0 0.00 0.00 0.00 93 1018.5
20260831063003 14 54 0.0 0.0 0.00 0.00 0.00 92 1018.5
20260831061502 15 53 0.0 0.0 0.00 0.00 0.00 92 1018.5
20260831060104 15 54 0.0 0.0 0.00 0.00 0.00 93 1018.4
20260831054557 15 54 0.0 0.0 0.00 0.00 0.00 94 1018.4
20260831053112 15 120 0.0 0.0 0.00 0.00 0.00 94 1018.4
20260831051552 15 120 0.0 0.0 0.00 0.00 0.00 93 1018.2
20260831050107 15 120 0.0 0.0 0.00 0.00 0.00 92 1018.1
20260831044549 16 120 0.0 0.0 0.00 0.00 0.00 92 1018.0
20260831043050 16 120 0.0 0.0 0.00 0.00 0.00 91 1017.8
20260831041553 17 120 0.0 0.0 0.00 0.00 0.00 90 1017.9
20260831040038 17 289 0.0 0.0 0.00 0.00 0.00 90 1018.0
20260831034540 17 290 0.0 0.0 0.00 0.00 0.00 90 1017.8
20260831033040 17 235 0.0 0.0 0.00 0.00 0.00 90 1017.9
20260831031546 17 235 0.0 0.0 0.00 0.00 0.00 90 1018.0
20260831030036 18 235 0.0 0.0 0.00 0.00 0.00 87 1017.9
20260831024536 18 235 0.0 0.0 0.00 0.00 0.00 86 1017.8
20260831023035 18 290 0.0 0.0 0.00 0.00 0.00 86 1017.8
20260831021535 18 274 0.0 0.0 0.00 0.00 0.00 87 1017.7
20260831020034 18 266 0.0 0.0 0.00 0.00 0.00 87 1017.7
20260831014537 19 124 0.0 3.2 0.00 0.00 0.00 84 1017.5
20260831013041 20 307 0.0 8.0 0.00 0.00 0.00 77 1017.6
20260831011531 21 273 0.0 1.6 0.00 0.00 0.00 75 1017.2
20260831010029 20 212 0.0 0.0 0.00 0.00 0.00 75 1017.0
20260831004529 20 232 0.0 0.0 0.00 0.00 0.00 75 1016.7
20260831003028 21 271 0.0 4.8 0.00 0.00 0.00 74 1016.7
20260831001535 21 285 0.0 8.0 0.00 0.00 0.00 73 1016.3
20260831000028 21 143 1.6 6.4 0.00 0.00 0.00 72 1016.1
20260830234528 21 229 1.6 11.3 0.00 0.00 0.00 72 1015.8
20260830233028 21 150 3.2 11.3 0.00 0.00 0.00 70 1015.8
20260830231526 21 239 3.2 12.9 0.00 0.00 0.00 68 1016.0
20260830230028 21 102 1.6 9.7 0.00 0.00 0.00 68 1015.9
20260830224524 22 172 3.2 12.9 0.00 0.00 0.00 67 1016.1
20260830223026 22 146 1.6 8.0 0.00 0.00 0.00 67 1016.1
20260830221522 22 207 1.6 11.3 0.00 0.00 0.00 65 1016.4
20260830220022 22 226 1.6 12.9 0.00 0.00 0.00 65 1016.2
20260830214522 22 127 3.2 8.0 0.00 0.00 0.00 65 1016.3
20260830213020 23 150 1.6 9.7 0.00 0.00 0.00 63 1016.3
20260830211520 23 146 0.0 4.8 0.00 0.00 0.00 65 1016.4
20260830210017 23 149 1.6 4.8 0.00 0.00 0.00 63 1016.5
20260830204517 23 274 0.0 8.0 0.00 0.00 0.00 60 1016.5
20260830203023 24 203 1.6 12.9 0.00 0.00 0.00 57 1016.7
20260830201515 25 203 0.0 9.7 0.00 0.00 0.00 54 1016.7
20260830200012 25 120 0.0 8.0 0.00 0.00 0.00 55 1017.0
20260830194511 25 143 1.6 6.4 0.00 0.00 0.00 56 1017.2
20260830193007 24 158 1.6 11.3 0.00 0.00 0.00 59 1017.3
20260830191505 23 143 0.0 0.0 0.00 0.00 0.00 63 1017.5
20260830190003 23 186 0.0 4.8 0.00 0.00 0.00 59 1017.8
20260830184502 24 160 0.0 8.0 0.00 0.00 0.00 59 1017.9
20260830183116 24 237 1.6 6.4 0.00 0.00 0.00 59 1018.0
20260830181558 24 201 0.0 9.7 0.00 0.00 0.00 61 1018.2
20260830180056 23 167 1.6 8.0 0.00 0.00 0.00 62 1018.4
20260830174557 23 243 0.0 3.2 0.00 0.00 0.00 63 1018.6
20260830173109 23 253 3.2 9.7 0.00 0.00 0.00 61 1018.7
20260830171551 23 163 0.0 12.9 0.00 0.00 0.00 63 1018.9
20260830170054 23 170 1.6 12.9 0.00 0.00 0.00 64 1019.0
20260830164552 23 146 3.2 16.1 0.00 0.00 0.00 65 1019.2
20260830163054 22 256 4.8 19.3 0.00 0.00 0.00 66 1019.3
20260830161601 22 283 1.6 8.0 0.00 0.00 0.00 67 1019.0
20260830160042 21 157 0.0 9.7 0.00 0.00 0.00 68 1019.1
20260830154541 22 127 1.6 11.3 0.00 0.00 0.00 68 1019.7
20260830153047 22 240 0.0 11.3 0.00 0.00 0.00 65 1019.6
20260830151541 22 156 3.2 9.7 0.00 0.00 0.00 64 1019.8
20260830150049 22 308 1.6 9.7 0.00 0.00 0.00 66 1019.7
20260830144536 21 246 3.2 11.3 0.00 0.00 0.00 68 1019.9
20260830143031 21 129 4.8 9.7 0.00 0.00 0.00 71 1019.9
20260830141528 20 159 1.6 14.5 0.00 0.00 0.00 71 1019.8
20260830140025 20 138 1.6 9.7 0.00 0.00 0.00 70 1020.0
20260830134524 20 142 1.6 9.7 0.00 0.00 0.00 71 1020.0
20260830133021 19 145 1.6 12.9 0.00 0.00 0.00 74 1020.1
20260830131518 18 120 3.2 9.7 0.00 0.00 0.00 75 1020.0
20260830130013 17 207 1.6 8.0 0.00 0.00 0.00 76 1020.2
20260830124511 17 233 0.0 6.4 0.00 0.00 0.00 76 1020.4
20260830123008 17 283 3.2 8.0 0.00 0.00 0.00 77 1020.5
20260830121506 16 123 1.6 6.4 0.00 0.00 0.00 77 1020.6
20260830120002 16 146 0.0 4.8 0.00 0.00 0.00 79 1020.7
20260830114605 16 194 0.0 3.2 0.00 0.00 0.00 79 1020.7
20260830113056 15 184 0.0 4.8 0.00 0.00 0.00 79 1020.5
20260830111555 15 162 0.0 3.2 0.00 0.00 0.00 79 1020.7
20260830110050 15 150 0.0 3.2 0.00 0.00 0.00 79 1020.5
20260830104549 15 189 0.0 0.0 0.00 0.00 0.00 77 1020.3
20260830103045 16 154 0.0 1.6 0.00 0.00 0.00 76 1020.4